Starlink 32328

operational
NORAD ID: 62489 Int'l Des: 2025-003 Owner: SPXS Country: US Constellation: starlink
LEOCIRCULAR

Starlink 32328について

説明を読み込み中...

リアルタイム位置

3D地球を読み込み中...

次回通過

高度履歴

Altitude vs Time

uPlot chart will show altitude changes over time

軌道要素

1 62489U 25003C 25347.47893945 .00016721 00000-0 61614-3 0 9997
2 62489 42.9998 56.1102 0001358 277.5098 82.5599 15.27559360 53483
Epoch: Dec 13, 2025 • Age: 25 hours

現在のステータス

高度 494.8 km
速度 7.62 km/s
衛星直下点 -41.58°S, 71.67°E
打ち上げ日 Jan 6, 2025
運用期間 0.9 years
タイプ internet

技術仕様

分類 Payload
質量 730.00 kg
乾燥質量 700.00 kg
総質量 730.00 kg
長さ 0.30 m
直径 4.10 m
スパン 29.00 m
形状 Box + pan
製造者 SPXS
バスタイプ Starlink V2M
フェーズステータス In Orbit
所有者/国 SPXS/US

大規模コンステレーション

Loading constellations...